period_start,C,m1,H,J0,J1,J2,J3,J4,J5,JA,JB,JC,JD,JJ,JK,JN,#
2014-12-18 00:04:31,0.12,0.99,0.00,20.51,25.10,28.39,4.94,27.14,1033.67,2039.19,3114.41,3032.93,3283.65,350.04,356.42,8.06,0000 0000 0000 0000 000000
2014-12-18 00:09:33,0.16,1.00,0.00,20.54,25.10,28.37,4.95,27.11,1033.68,2039.22,3112.66,3031.71,3282.40,350.31,356.69,8.09,0000 0000 0000 0000 000000
2014-12-18 00:14:34,0.15,1.00,0.00,20.55,25.10,28.38,4.91,27.04,1033.67,2039.22,3110.97,3030.37,3280.98,349.92,356.37,8.12,0000 0000 0000 0000 000000
2014-12-18 00:19:36,0.12,1.01,0.00,20.55,25.10,28.35,5.02,27.14,1033.71,2039.15,3109.28,3029.08,3279.66,350.88,357.38,8.15,0000 0000 0000 0000 000000
2014-12-18 00:24:37,0.15,1.01,0.00,20.52,25.10,28.38,4.91,27.29,1033.71,2039.22,3107.64,3027.89,3278.33,349.50,356.01,8.18,0000 0000 0000 0000 000000
2014-12-18 00:29:38,0.14,1.02,0.00,20.54,25.10,28.37,4.93,27.10,1033.71,2039.19,3106.10,3026.67,3277.01,349.51,356.16,8.21,0000 0000 0000 0000 000000
2014-12-18 00:34:39,0.12,1.02,0.00,20.53,25.11,28.37,4.91,27.02,1033.71,2039.11,3104.59,3025.54,3275.71,350.00,356.50,8.24,0000 0000 0000 0000 000000
2014-12-18 00:39:40,0.13,1.02,0.00,20.56,25.11,28.38,4.97,27.27,1033.71,2039.07,3103.06,3024.45,3274.48,349.94,356.38,8.27,0000 0000 0000 0000 000000
2014-12-18 00:44:42,0.12,1.03,0.00,20.56,25.12,28.40,4.96,27.11,1033.71,2039.07,3101.62,3023.41,3273.34,350.05,356.55,8.30,0000 0000 0000 0000 000000
2014-12-18 00:49:43,0.10,1.03,0.00,20.56,25.12,28.37,4.95,27.08,1033.71,2039.04,3100.29,3022.32,3272.25,349.66,356.12,8.33,0000 0000 0000 0000 000000
2014-12-18 00:54:44,0.12,1.03,0.00,20.59,25.12,28.37,4.84,27.20,1033.71,2039.04,3098.84,3021.27,3271.10,349.05,355.51,8.36,0000 0000 0000 0000 000000
2014-12-18 00:59:46,0.12,1.04,0.00,20.58,25.12,28.34,4.87,27.07,1033.71,2039.03,3097.37,3020.25,3269.95,350.31,356.73,8.39,0000 0000 0000 0000 000000
2014-12-18 01:04:47,0.12,1.04,0.00,20.60,25.13,28.38,4.93,27.11,1033.72,2039.02,3095.96,3019.18,3268.88,350.23,356.64,8.42,0000 0000 0000 0000 000000
2014-12-18 01:09:48,0.13,1.04,0.00,20.61,25.14,28.39,4.91,27.07,1033.72,2039.01,3094.54,3018.06,3267.65,349.71,356.02,8.44,0000 0000 0000 0000 000000
2014-12-18 01:14:50,0.12,1.05,0.00,20.59,25.14,28.41,4.95,27.13,1033.71,2039.01,3093.09,3016.95,3266.50,350.20,356.60,8.47,0000 0000 0000 0000 000000
2014-12-18 01:19:51,0.13,1.05,0.00,20.57,25.15,28.39,4.94,27.17,1033.71,2039.01,3091.65,3015.90,3265.34,350.44,356.65,8.50,0000 0000 0000 0000 000000
2014-12-18 01:24:52,0.12,1.06,0.00,20.61,25.15,28.40,4.88,27.17,1033.71,2039.02,3090.14,3014.83,3264.18,349.92,356.29,8.53,0000 0000 0000 0000 000000
2014-12-18 01:29:54,0.13,1.06,0.00,20.59,25.15,28.40,4.95,27.13,1033.71,2039.02,3088.68,3013.73,3263.08,349.60,355.97,8.56,0000 0000 0000 0000 000000
2014-12-18 01:34:55,0.12,1.06,0.00,20.59,25.15,28.42,4.92,27.14,1033.71,2039.01,3087.17,3012.67,3262.02,350.17,356.80,8.59,0000 0000 0000 0000 000000
2014-12-18 01:39:56,0.14,1.07,0.00,20.60,25.15,28.39,4.86,27.09,1033.71,2039.00,3085.55,3011.45,3260.77,350.14,356.60,8.62,0000 0000 0000 0000 000000
2014-12-18 01:44:58,0.12,1.07,0.00,20.58,25.16,28.44,4.89,27.00,1033.71,2039.00,3084.17,3010.41,3259.65,350.21,356.69,8.65,0000 0000 0000 0000 000000
2014-12-18 01:49:59,0.13,1.08,0.00,20.62,25.17,28.45,4.86,27.02,1033.69,2039.00,3082.69,3009.28,3258.38,349.32,355.61,8.68,0000 0000 0000 0000 000000
2014-12-18 01:55:00,0.13,1.08,0.00,20.59,25.17,28.42,4.95,27.07,1033.70,2039.00,3081.13,3008.12,3257.01,349.76,356.28,8.71,0000 0000 0000 0000 000000
2014-12-18 02:00:01,0.14,1.08,0.00,20.59,25.17,28.43,4.94,27.08,1033.70,2039.00,3079.52,3007.05,3255.77,350.32,356.81,8.74,0000 0000 0000 0000 000000
2014-12-18 02:05:02,0.15,1.09,0.00,20.61,25.17,28.44,4.90,27.05,1033.71,2039.00,3077.78,3005.84,3254.54,350.05,356.47,8.77,0000 0000 0000 0000 000000
2014-12-18 02:10:04,0.14,1.09,0.00,20.60,25.17,28.47,5.02,27.11,1033.73,2038.99,3076.06,3004.62,3253.21,350.54,356.91,8.80,0000 0000 0000 0000 000000
2014-12-18 02:15:05,0.13,1.10,0.00,20.60,25.18,28.48,5.02,27.18,1033.76,2038.99,3074.58,3003.54,3251.94,350.63,357.03,8.83,0000 0000 0000 0000 000000
2014-12-18 02:20:06,0.13,1.10,0.00,20.60,25.19,28.47,4.90,27.02,1034.11,2038.99,3073.07,3002.35,3250.76,350.09,356.51,8.85,0000 0000 0000 0000 000000
2014-12-18 02:25:07,0.13,1.10,0.00,20.61,25.19,28.45,4.88,27.13,1034.18,2038.99,3071.62,3001.29,3249.58,349.80,356.23,8.88,0000 0000 0000 0000 000000
2014-12-18 02:30:09,0.11,1.11,0.00,20.60,25.20,28.49,4.93,27.13,1034.16,2038.99,3070.30,3000.17,3248.41,349.88,356.37,8.91,0000 0000 0000 0000 000000
2014-12-18 02:35:10,0.13,1.11,0.00,20.62,25.20,28.50,4.94,27.18,1034.05,2038.98,3068.81,2999.05,3247.14,349.89,356.54,8.94,0000 0000 0000 0000 000000
2014-12-18 02:40:12,0.14,1.12,0.00,20.62,25.20,28.48,4.94,27.18,1034.06,2038.98,3067.36,2997.83,3245.82,349.72,356.20,8.97,0000 0000 0000 0000 000000
2014-12-18 02:45:13,0.15,1.12,0.00,20.63,25.20,28.47,4.96,27.16,1033.99,2038.98,3065.79,2996.67,3244.55,350.63,357.13,9.00,0000 0000 0000 0000 000000
2014-12-18 02:50:14,0.13,1.12,0.00,20.64,25.20,28.46,4.93,27.17,1033.82,2038.99,3064.36,2995.55,3243.27,349.89,356.35,9.03,0000 0000 0000 0000 000000
2014-12-18 02:55:15,0.14,1.13,0.00,20.65,25.20,28.44,4.95,27.10,1033.75,2038.99,3062.67,2994.39,3241.86,350.00,356.48,9.06,0000 0000 0000 0000 000000
2014-12-18 03:00:17,0.14,1.13,0.00,20.61,25.20,28.46,4.99,27.17,1033.76,2038.98,3061.08,2993.16,3240.57,350.72,357.10,9.09,0000 0000 0000 0000 000000
2014-12-18 03:05:18,0.13,1.14,0.00,20.64,25.20,28.46,4.90,27.07,1033.89,2038.96,3059.47,2991.95,3239.27,349.98,356.41,9.12,0000 0000 0000 0000 000000
2014-12-18 03:10:19,0.15,1.14,0.00,20.66,25.20,28.44,4.94,26.97,1033.84,2038.96,3057.81,2990.74,3237.97,349.56,355.97,9.15,0000 0000 0000 0000 000000
2014-12-18 03:15:21,0.14,1.15,0.00,20.63,25.21,28.48,4.93,27.09,1033.74,2038.96,3056.08,2989.52,3236.75,349.69,356.33,9.18,0000 0000 0000 0000 000000
2014-12-18 03:20:22,0.14,1.15,0.00,20.65,25.21,28.48,4.98,27.18,1033.73,2038.96,3054.45,2988.31,3235.45,350.51,356.53,9.21,0000 0000 0000 0000 000000
2014-12-18 03:25:23,0.13,1.15,0.00,20.66,25.21,28.51,4.85,27.09,1033.74,2038.96,3052.80,2987.18,3234.29,349.97,356.25,9.24,0000 0000 0000 0000 000000
2014-12-18 03:30:24,0.15,1.16,0.00,20.66,25.22,28.50,4.96,27.07,1033.74,2038.96,3051.18,2985.92,3232.94,350.04,356.35,9.26,0000 0000 0000 0000 000000
2014-12-18 03:35:26,0.17,1.16,0.00,20.66,25.22,28.50,4.95,26.99,1033.73,2038.97,3049.47,2984.68,3231.56,349.75,356.19,9.29,0000 0000 0000 0000 000000
2014-12-18 03:40:27,0.20,1.17,0.00,20.66,25.22,28.52,4.89,27.22,1033.72,2038.95,3047.14,2983.16,3229.86,349.82,356.30,9.32,0000 0000 0000 0000 000000
2014-12-18 03:45:28,0.22,1.18,0.00,20.66,25.22,28.50,4.94,27.19,1033.73,2038.97,3044.39,2981.38,3228.00,349.99,356.35,9.35,0000 0000 0000 0000 000000
2014-12-18 03:50:30,0.22,1.18,0.00,20.66,25.22,28.53,4.96,27.31,1033.72,2038.92,3041.64,2979.58,3226.03,349.87,356.32,9.38,0000 0000 0000 0000 000000
2014-12-18 03:55:31,0.13,1.19,0.00,20.67,25.22,28.50,4.85,27.18,1033.72,2038.84,3039.82,2978.23,3224.51,349.78,356.00,9.41,0000 0000 0000 0000 000000
2014-12-18 04:00:32,0.12,1.19,0.00,20.68,25.22,28.48,4.92,27.16,1033.72,2038.79,3038.20,2977.10,3223.32,349.84,356.18,9.44,0000 0000 0000 0000 000000
2014-12-18 04:05:33,0.15,1.20,0.00,20.66,25.22,28.49,4.90,26.96,1033.75,2038.91,3036.60,2976.01,3222.19,349.92,356.16,9.47,0000 0000 0000 0000 000000
2014-12-18 04:10:34,0.14,1.20,0.00,20.67,25.22,28.50,4.93,26.95,1033.79,2038.90,3035.06,2974.86,3220.95,349.96,356.37,9.50,0000 0000 0000 0000 000000
2014-12-18 04:15:36,0.16,1.20,0.00,20.65,25.22,28.52,4.91,27.13,1033.74,2038.91,3033.46,2973.63,3219.70,349.79,356.19,9.53,0000 0000 0000 0000 000000
2014-12-18 04:20:37,0.14,1.21,0.00,20.66,25.23,28.51,4.88,27.05,1033.72,2038.86,3031.63,2972.36,3218.29,349.95,355.99,9.56,0000 0000 0000 0000 000000
2014-12-18 04:25:38,0.13,1.21,0.00,20.70,25.24,28.52,4.90,26.88,1033.71,2038.77,3029.75,2971.04,3216.87,350.34,356.57,9.59,0000 0000 0000 0000 000000
2014-12-18 04:30:39,0.13,1.22,0.00,20.68,25.25,28.52,4.88,27.07,1033.71,2038.70,3028.22,2969.87,3215.67,349.39,355.75,9.62,0000 0000 0000 0000 000000
2014-12-18 04:35:40,0.10,1.22,0.00,20.67,25.25,28.54,4.96,27.18,1033.71,2038.54,3026.65,2968.68,3214.40,350.12,356.55,9.65,0000 0000 0000 0000 000000
2014-12-18 04:40:42,0.14,1.22,0.00,20.64,25.25,28.50,4.86,27.06,1033.73,2038.18,3024.61,2967.22,3212.63,349.60,356.07,9.67,0000 0000 0000 0000 000000
2014-12-18 04:45:43,0.21,1.23,0.00,20.66,25.25,28.53,4.94,27.06,1033.71,2038.21,3022.46,2965.61,3210.91,349.98,356.20,9.70,0000 0000 0000 0000 000000
2014-12-18 04:50:44,0.20,1.23,0.00,20.67,25.25,28.50,4.92,26.99,1033.72,2038.14,3020.16,2963.93,3209.17,349.73,356.50,9.73,0000 0000 0000 0000 000000
2014-12-18 04:55:46,0.18,1.24,0.00,20.65,25.25,28.50,4.85,27.03,1033.72,2038.07,3017.82,2962.30,3207.45,349.70,356.32,9.76,0000 0000 0000 0000 000000
2014-12-18 05:00:47,0.19,1.25,0.00,20.64,25.25,28.55,4.93,27.07,1033.72,2038.09,3015.68,2960.82,3205.83,349.10,355.55,9.79,0000 0000 0000 0000 000000
2014-12-18 05:05:49,0.16,1.25,0.00,20.64,25.25,28.53,5.06,27.26,1033.72,2038.05,3013.55,2959.41,3204.40,350.48,356.91,9.82,0000 0000 0000 0000 000000
2014-12-18 05:10:50,0.17,1.26,0.00,20.64,25.25,28.56,4.98,27.12,1033.71,2038.09,3011.67,2958.01,3202.92,349.93,356.29,9.85,0000 0000 0000 0000 000000
2014-12-18 05:15:52,0.17,1.26,0.00,20.64,25.25,28.53,5.01,27.06,1033.78,2038.06,3009.80,2956.65,3201.50,350.09,356.38,9.88,0000 0000 0000 0000 000000
2014-12-18 05:20:53,0.14,1.27,0.00,20.64,25.25,28.54,4.97,27.07,1033.76,2038.06,3008.06,2955.39,3200.07,350.26,356.66,9.91,0000 0000 0000 0000 000000
2014-12-18 05:25:55,0.15,1.27,0.00,20.63,25.26,28.54,5.01,27.07,1033.73,2038.04,3006.45,2953.99,3198.67,350.55,357.05,9.94,0000 0000 0000 0000 000000
2014-12-18 05:30:56,0.18,1.27,0.00,20.60,25.26,28.52,4.97,27.00,1033.73,2038.03,3004.55,2952.62,3197.22,350.04,356.47,9.97,0000 0000 0000 0000 000000
2014-12-18 05:35:57,0.14,1.28,0.00,20.64,25.27,28.55,4.87,26.86,1033.72,2038.02,3002.69,2951.37,3195.94,349.47,356.04,10.00,0000 0000 0000 0000 000000
2014-12-18 05:40:59,0.16,1.28,0.00,20.63,25.26,28.58,4.86,26.91,1033.71,2038.03,3000.89,2950.09,3194.63,349.62,355.94,10.03,0000 0000 0000 0000 000000
2014-12-18 05:46:00,0.16,1.29,0.00,20.62,25.27,28.55,4.92,27.03,1033.73,2038.04,2999.30,2948.80,3193.29,350.01,356.39,10.06,0000 0000 0000 0000 000000
2014-12-18 05:51:01,0.15,1.29,0.00,20.63,25.27,28.55,4.90,26.93,1033.72,2038.04,2997.59,2947.54,3191.81,350.26,356.68,10.08,0000 0000 0000 0000 000000
2014-12-18 05:56:02,0.14,1.30,0.00,20.62,25.27,28.56,5.08,27.15,1033.72,2038.03,2996.04,2946.34,3190.43,350.23,356.58,10.11,0000 0000 0000 0000 000000
2014-12-18 06:01:04,0.15,1.30,0.00,20.61,25.27,28.56,5.00,27.07,1033.72,2038.05,2994.43,2945.04,3188.97,350.36,356.78,10.14,0000 0000 0000 0000 000000
2014-12-18 06:06:05,0.14,1.31,0.00,20.63,25.27,28.54,4.95,27.08,1033.72,2038.02,2992.83,2943.91,3187.64,350.12,356.72,10.17,0000 0000 0000 0000 000000
2014-12-18 06:11:06,0.16,1.31,0.00,20.63,25.26,28.52,4.89,27.01,1033.71,2038.02,2991.10,2942.72,3186.31,349.69,356.19,10.20,0000 0000 0000 0000 000000
2014-12-18 06:16:07,0.14,1.32,0.00,20.63,25.26,28.57,4.93,27.02,1033.71,2038.03,2989.38,2941.54,3185.14,350.48,356.70,10.23,0000 0000 0000 0000 000000
2014-12-18 06:21:09,0.13,1.32,0.00,20.63,25.25,28.54,4.93,26.95,1033.71,2038.03,2987.97,2940.35,3183.80,350.13,356.49,10.26,0000 0000 0000 0000 000000
2014-12-18 06:26:10,0.14,1.32,0.00,20.61,25.25,28.58,5.00,27.14,1033.71,2038.02,2986.44,2939.09,3182.45,350.39,356.64,10.29,0000 0000 0000 0000 000000
2014-12-18 06:31:11,0.15,1.33,0.00,20.60,25.25,28.56,4.82,26.90,1033.71,2038.01,2984.73,2937.87,3181.13,349.68,356.12,10.32,0000 0000 0000 0000 000000
2014-12-18 06:36:13,0.15,1.33,0.00,20.62,25.25,28.54,4.90,27.01,1033.71,2038.03,2983.28,2936.76,3179.83,350.40,356.53,10.35,0000 0000 0000 0000 000000
2014-12-18 06:41:14,0.15,1.34,0.00,20.62,25.25,28.55,4.98,27.02,1033.71,2038.01,2981.53,2935.56,3178.55,350.44,356.95,10.38,0000 0000 0000 0000 000000
2014-12-18 06:46:16,0.14,1.34,0.00,20.61,25.25,28.55,4.90,26.98,1033.71,2038.04,2979.89,2934.46,3177.45,350.40,356.79,10.41,0000 0000 0000 0000 000000
2014-12-18 06:51:17,0.13,1.35,0.00,20.61,25.25,28.52,4.89,26.96,1033.71,2038.02,2978.22,2933.32,3176.28,349.71,356.34,10.44,0000 0000 0000 0000 000000
2014-12-18 06:56:18,0.15,1.35,0.00,20.61,25.25,28.57,4.92,27.10,1033.71,2038.02,2976.51,2931.99,3174.93,349.34,355.74,10.47,0000 0000 0000 0000 000000
2014-12-18 07:01:20,0.15,1.36,0.00,20.57,25.25,28.54,4.94,27.09,1033.70,2038.03,2974.94,2930.79,3173.61,350.19,356.58,10.49,0000 0000 0000 0000 000000
2014-12-18 07:06:21,0.14,1.36,0.00,20.60,25.25,28.54,4.93,27.14,1033.71,2038.04,2973.35,2929.65,3172.38,349.30,355.86,10.52,0000 0000 0000 0000 000000
2014-12-18 07:11:22,0.15,1.36,0.00,20.61,25.25,28.51,5.01,27.08,1033.62,2038.04,2971.64,2928.42,3171.05,350.18,356.69,10.55,0000 0000 0000 0000 000000
2014-12-18 07:16:24,0.14,1.37,0.00,20.60,25.25,28.52,4.90,27.07,1033.54,2038.06,2970.20,2927.28,3169.66,350.19,356.87,10.58,0000 0000 0000 0000 000000
2014-12-18 07:21:25,0.14,1.37,0.00,20.60,25.25,28.54,4.94,27.04,1033.55,2038.05,2968.57,2926.04,3168.37,349.93,356.31,10.61,0000 0000 0000 0000 000000
2014-12-18 07:26:26,0.14,1.38,0.00,20.59,25.25,28.51,4.98,26.93,1033.54,2038.05,2966.92,2924.86,3167.17,350.37,356.62,10.64,0000 0000 0000 0000 000000
2014-12-18 07:31:28,0.15,1.38,0.00,20.59,25.25,28.51,5.05,27.14,1033.62,2038.03,2965.21,2923.68,3165.93,350.32,356.70,10.67,0000 0000 0000 0000 000000
2014-12-18 07:36:29,0.16,1.39,0.00,20.61,25.24,28.53,4.95,27.23,1033.67,2038.04,2963.50,2922.42,3164.60,350.02,356.50,10.70,0000 0000 0000 0000 000000
2014-12-18 07:41:30,0.14,1.39,0.00,20.57,25.23,28.53,4.89,27.12,1033.65,2038.03,2961.95,2921.18,3163.23,349.64,356.02,10.73,0000 0000 0000 0000 000000
2014-12-18 07:46:31,0.13,1.40,0.00,20.58,25.23,28.53,4.85,27.07,1033.62,2038.04,2960.61,2920.09,3161.87,349.71,355.83,10.76,0000 0000 0000 0000 000000
2014-12-18 07:51:32,0.16,1.40,0.00,20.53,25.22,28.56,4.94,27.15,1033.66,2038.04,2958.96,2918.85,3160.62,350.15,356.62,10.79,0000 0000 0000 0000 000000
2014-12-18 07:56:34,0.13,1.40,0.00,20.53,25.22,28.52,4.97,26.98,1033.71,2038.04,2957.35,2917.73,3159.45,350.63,357.22,10.82,0000 0000 0000 0000 000000
2014-12-18 08:01:35,0.15,1.41,0.00,20.56,25.22,28.54,4.96,27.02,1033.71,2038.02,2955.72,2916.49,3158.16,349.78,356.38,10.85,0000 0000 0000 0000 000000
2014-12-18 08:06:36,0.13,1.41,0.00,20.56,25.22,28.54,4.97,26.97,1033.71,2038.01,2954.14,2915.41,3156.85,350.29,356.67,10.88,0000 0000 0000 0000 000000
2014-12-18 08:11:37,0.15,1.42,0.00,20.58,25.22,28.49,4.92,27.13,1033.71,2038.03,2952.62,2914.14,3155.62,349.77,356.24,10.90,0000 0000 0000 0000 000000
2014-12-18 08:16:39,0.14,1.42,0.00,20.53,25.22,28.50,4.95,27.07,1033.71,2038.02,2950.96,2912.95,3154.32,350.03,356.33,10.93,0000 0000 0000 0000 000000
2014-12-18 08:21:40,0.14,1.43,0.00,20.52,25.22,28.55,5.02,27.14,1033.71,2038.01,2949.42,2911.84,3153.03,350.19,356.74,10.96,0000 0000 0000 0000 000000
2014-12-18 08:26:41,0.17,1.43,0.00,20.53,25.22,28.52,4.96,27.12,1033.71,2038.01,2947.75,2910.55,3151.78,350.24,356.76,10.99,0000 0000 0000 0000 000000
2014-12-18 08:31:42,0.13,1.43,0.00,20.54,25.22,28.52,4.82,26.93,1033.71,2038.02,2946.32,2909.52,3150.58,349.68,356.27,11.02,0000 0000 0000 0000 000000
2014-12-18 08:36:44,0.14,1.44,0.00,20.53,25.21,28.50,4.87,27.05,1033.71,2038.01,2944.69,2908.34,3149.34,349.84,356.31,11.05,0000 0000 0000 0000 000000
2014-12-18 08:41:45,0.14,1.44,0.00,20.53,25.20,28.51,4.89,27.21,1033.71,2038.01,2943.05,2907.09,3148.06,349.68,356.33,11.08,0000 0000 0000 0000 000000
2014-12-18 08:46:46,0.14,1.45,0.00,20.53,25.20,28.52,4.94,27.20,1033.71,2038.02,2941.56,2905.99,3146.83,350.03,356.55,11.11,0000 0000 0000 0000 000000
2014-12-18 08:51:48,0.14,1.45,0.00,20.50,25.20,28.49,4.91,27.10,1033.71,2038.04,2940.14,2904.83,3145.61,350.10,356.74,11.14,0000 0000 0000 0000 000000
2014-12-18 08:56:49,0.14,1.46,0.00,20.52,25.20,28.51,4.91,27.08,1033.71,2038.02,2938.66,2903.72,3144.30,349.54,355.97,11.17,0000 0000 0000 0000 000000
2014-12-18 09:01:51,0.14,1.46,0.00,20.51,25.20,28.51,4.92,27.11,1033.72,2038.02,2937.15,2902.54,3143.06,350.07,356.55,11.20,0000 0000 0000 0000 000000
2014-12-18 09:06:52,0.15,1.46,0.00,20.55,25.20,28.50,4.94,27.20,1033.73,2038.03,2935.69,2901.47,3141.84,349.57,356.02,11.23,0000 0000 0000 0000 000000
2014-12-18 09:11:53,0.14,1.47,0.00,20.53,25.19,28.48,4.89,27.18,1033.72,2038.04,2934.15,2900.34,3140.72,349.88,356.54,11.26,0000 0000 0000 0000 000000
2014-12-18 09:16:55,0.14,1.47,0.00,20.53,25.18,28.49,4.97,27.07,1033.71,2038.05,2932.57,2899.31,3139.54,350.31,356.86,11.29,0000 0000 0000 0000 000000
2014-12-18 09:21:56,0.14,1.48,0.00,20.51,25.17,28.49,4.92,27.15,1033.71,2038.07,2930.91,2898.07,3138.42,349.78,356.29,11.31,0000 0000 0000 0000 000000
2014-12-18 09:26:57,0.14,1.48,0.00,20.52,25.17,28.50,4.93,27.17,1033.71,2038.08,2929.34,2896.91,3137.16,350.31,356.90,11.34,0000 0000 0000 0000 000000
2014-12-18 09:31:58,0.17,1.49,0.00,20.50,25.17,28.48,4.92,27.18,1033.71,2038.10,2927.73,2895.75,3135.89,350.28,356.98,11.37,0000 0000 0000 0000 000000
2014-12-18 09:36:59,0.14,1.49,0.00,20.54,25.17,28.46,4.95,27.13,1033.71,2038.08,2926.20,2894.58,3134.68,350.08,356.53,11.40,0000 0000 0000 0000 000000
2014-12-18 09:42:00,0.14,1.49,0.00,20.51,25.16,28.48,5.02,27.23,1033.71,2038.11,2924.72,2893.42,3133.54,350.15,356.60,11.43,0000 0000 0000 0000 000000
2014-12-18 09:47:02,0.13,1.50,0.00,20.49,25.15,28.47,4.91,27.14,1033.71,2038.10,2923.41,2892.35,3132.29,350.01,356.73,11.46,0000 0000 0000 0000 000000
2014-12-18 09:52:03,0.14,1.50,0.00,20.48,25.15,28.43,4.77,27.06,1033.71,2038.16,2921.85,2891.28,3131.09,349.67,356.34,11.49,0000 0000 0000 0000 000000
2014-12-18 09:57:04,0.14,1.51,0.00,20.49,25.15,28.44,4.94,27.18,1033.71,2038.24,2920.49,2890.25,3129.94,350.30,356.91,11.52,0000 0000 0000 0000 000000
2014-12-18 10:02:05,0.15,1.51,0.00,20.46,25.15,28.45,4.98,27.15,1033.71,2038.43,2918.98,2889.13,3128.80,350.41,356.91,11.55,0000 0000 0000 0000 000000
2014-12-18 10:07:07,0.17,1.52,0.00,20.49,25.15,28.44,4.91,27.32,1033.70,2038.50,2917.54,2888.08,3127.68,350.01,356.70,11.58,0000 0000 0000 0000 000000
2014-12-18 10:12:08,0.13,1.52,0.00,20.46,25.15,28.44,4.87,26.98,1033.71,2038.47,2916.02,2887.00,3126.53,349.68,356.38,11.61,0000 0000 0000 0000 000000
2014-12-18 10:17:09,0.12,1.53,0.00,20.44,25.15,28.45,4.96,27.27,1033.71,2038.41,2914.50,2885.80,3125.34,350.37,356.99,11.64,0000 0000 0000 0000 000000
2014-12-18 10:22:10,0.13,1.53,0.00,20.47,25.14,28.44,4.98,27.19,1033.71,2038.38,2913.14,2884.81,3124.25,350.00,356.46,11.67,0000 0000 0000 0000 000000
2014-12-18 10:27:12,0.14,1.53,0.00,20.48,25.14,28.42,4.98,27.14,1033.69,2038.38,2911.75,2883.83,3123.17,350.10,356.69,11.70,0000 0000 0000 0000 000000
2014-12-18 10:32:13,0.10,1.54,0.00,20.47,25.13,28.44,4.92,26.98,1033.65,2038.37,2910.40,2882.86,3122.14,349.90,356.30,11.72,0000 0000 0000 0000 000000
2014-12-18 10:37:14,0.15,1.54,0.00,20.48,25.13,28.44,4.84,27.02,1033.52,2038.33,2908.96,2881.75,3120.85,349.87,356.45,11.75,0000 0000 0000 0000 000000
2014-12-18 10:42:15,0.17,1.54,0.00,20.46,25.12,28.49,4.91,27.18,1033.45,2038.22,2906.99,2880.40,3119.42,350.03,356.59,11.78,0000 0000 0000 0000 000000
2014-12-18 10:47:16,0.21,1.55,0.00,20.43,25.12,28.48,4.87,27.13,1033.30,2038.25,2904.78,2878.87,3117.71,349.46,356.16,11.81,0000 0000 0000 0000 000000
2014-12-18 10:52:18,0.22,1.56,0.00,20.43,25.12,28.42,4.99,27.15,1033.44,2038.45,2902.49,2877.45,3116.06,350.02,356.66,11.84,0000 0000 0000 0000 000000
2014-12-18 10:57:19,0.27,1.56,0.00,20.44,25.12,28.42,4.94,27.18,1033.34,2038.40,2899.72,2875.48,3113.97,350.31,356.82,11.87,0000 0000 0000 0000 000000
2014-12-18 11:02:21,0.18,1.57,0.00,20.46,25.12,28.44,4.95,27.11,1033.40,2038.38,2897.42,2873.84,3112.29,350.36,356.97,11.90,0000 0000 0000 0000 000000
2014-12-18 11:07:22,0.16,1.58,0.00,20.46,25.12,28.39,4.90,26.98,1033.38,2038.27,2895.46,2872.40,3110.70,349.68,356.10,11.93,0000 0000 0000 0000 000000
2014-12-18 11:12:23,0.17,1.58,0.00,20.43,25.12,28.43,4.91,27.01,1033.25,2038.36,2894.02,2871.27,3109.42,350.01,356.48,11.96,0000 0000 0000 0000 000000
2014-12-18 11:17:25,0.30,1.59,0.00,20.44,25.12,28.41,4.91,27.06,1033.23,2038.58,2891.17,2869.58,3107.65,350.12,356.47,11.99,0000 0000 0000 0000 000000
2014-12-18 11:22:26,2.56,1.64,0.00,20.44,25.11,28.43,4.94,27.27,1033.24,2038.44,2864.95,2853.40,3090.66,350.51,357.07,12.02,0000 0000 0000 0000 000000
2014-12-18 11:27:27,0.17,1.67,0.23,20.43,25.10,28.40,4.96,27.22,1033.25,2038.56,2859.16,2849.82,3086.81,350.23,356.93,12.05,0000 0000 0000 0000 000000
2014-12-18 11:32:29,0.13,1.67,1.00,20.42,25.10,28.41,4.89,27.15,1033.23,2038.43,2857.74,2848.75,3085.67,349.44,356.04,12.08,0000 0000 0000 0000 000000
2014-12-18 11:37:30,0.15,1.68,1.00,20.41,25.10,28.41,5.00,27.35,1033.23,2038.63,2856.36,2847.70,3084.60,350.18,356.56,12.11,0000 0000 0000 0000 000000
2014-12-18 11:42:31,0.09,1.68,1.00,20.43,25.10,28.44,4.95,27.27,1033.23,2038.36,2854.71,2846.49,3083.38,350.21,356.67,12.13,0000 0000 0000 0000 000000
2014-12-18 11:47:32,0.15,1.69,1.00,20.37,25.09,28.42,4.96,27.24,1033.22,2038.46,2853.29,2845.44,3082.26,349.86,356.26,12.16,0000 0000 0000 0000 000000
2014-12-18 11:52:34,0.24,1.69,1.00,20.37,25.08,28.39,4.87,26.95,1033.23,2038.69,2851.46,2844.12,3080.71,350.20,356.76,12.19,0000 0000 0000 0000 000000
2014-12-18 11:57:35,0.20,1.70,0.73,20.39,25.07,28.41,4.85,26.94,1033.22,2038.64,2849.10,2842.50,3078.97,349.49,355.89,12.22,0000 0000 0000 0000 000000
2014-12-18 12:02:36,0.18,1.70,0.00,20.41,25.07,28.37,5.05,27.00,1033.22,2038.68,2847.12,2841.08,3077.48,350.55,357.07,12.25,0000 0000 0000 0000 000000
2014-12-18 12:07:37,0.15,1.71,0.00,20.38,25.07,28.41,4.81,26.81,1033.22,2038.72,2845.50,2839.97,3076.30,349.40,356.14,12.28,0000 0000 0000 0000 000000
2014-12-18 12:12:38,0.17,1.71,0.00,20.35,25.07,28.38,4.91,26.93,1033.22,2038.83,2843.98,2838.82,3075.17,349.77,356.52,12.31,0000 0000 0000 0000 000000
2014-12-18 12:17:40,0.14,1.72,0.00,20.37,25.07,28.35,5.01,26.76,1033.22,2038.87,2842.55,2837.78,3074.01,350.43,356.93,12.34,0000 0000 0000 0000 000000
2014-12-18 12:22:41,0.12,1.72,0.00,20.37,25.07,28.39,4.90,26.90,1033.22,2038.88,2841.21,2836.76,3072.93,349.81,356.22,12.37,0000 0000 0000 0000 000000
2014-12-18 12:27:43,0.14,1.73,0.00,20.37,25.07,28.37,4.93,26.98,1033.21,2038.92,2839.95,2835.79,3071.82,349.85,356.37,12.40,0000 0000 0000 0000 000000
2014-12-18 12:32:44,0.14,1.73,0.00,20.36,25.07,28.38,4.91,26.88,1033.20,2038.86,2838.51,2834.65,3070.64,349.64,356.15,12.43,0000 0000 0000 0000 000000
2014-12-18 12:37:46,0.14,1.73,0.00,20.37,25.07,28.37,5.04,26.99,1033.17,2038.80,2836.93,2833.57,3069.55,350.54,356.97,12.46,0000 0000 0000 0000 000000
2014-12-18 12:42:47,0.14,1.74,0.00,20.37,25.07,28.36,4.96,26.97,1033.14,2038.83,2835.61,2832.52,3068.40,350.23,356.87,12.49,0000 0000 0000 0000 000000
2014-12-18 12:47:48,0.13,1.74,0.00,20.37,25.06,28.37,4.90,27.18,1033.04,2038.92,2834.31,2831.55,3067.38,349.73,356.20,12.52,0000 0000 0000 0000 000000
2014-12-18 12:52:49,0.15,1.75,0.00,20.38,25.05,28.35,4.82,26.98,1032.92,2038.96,2832.80,2830.51,3066.19,349.21,355.66,12.54,0000 0000 0000 0000 000000
2014-12-18 12:57:51,0.13,1.75,0.00,20.36,25.05,28.34,4.88,26.92,1032.80,2038.91,2831.22,2829.36,3065.03,349.78,356.20,12.57,0000 0000 0000 0000 000000
2014-12-18 13:02:52,0.14,1.76,0.00,20.34,25.05,28.33,5.01,27.05,1032.82,2038.86,2829.64,2828.29,3063.89,350.52,356.98,12.60,0000 0000 0000 0000 000000